| time (UTC) | temp F | wind direction | speed MPH | gust MPH | rain 1hr in | rain 24hr in | rain mn in | humidity % | barometer mb |
| 20260504041811 | 47 | 147 | 2.0 | 2.0 | 0.00 | 0.00 | 0.00 | 55 | 1013.1 |
| 20260504041307 | 47 | 199 | 2.0 | 4.0 | 0.00 | 0.00 | 0.00 | 54 | 1012.9 |
| 20260504040804 | 47 | 176 | 2.0 | 3.0 | 0.00 | 0.00 | 0.00 | 54 | 1013.0 |
| 20260504040301 | 47 | 153 | 1.0 | 3.0 | 0.00 | 0.00 | 0.00 | 54 | 1013.0 |
| 20260504035757 | 47 | 139 | 1.0 | 3.0 | 0.00 | 0.00 | 0.00 | 55 | 1013.0 |
| 20260504035254 | 47 | 124 | 1.0 | 2.0 | 0.00 | 0.00 | 0.00 | 56 | 1013.0 |
| 20260504034751 | 47 | 188 | 2.0 | 3.0 | 0.00 | 0.00 | 0.00 | 54 | 1012.8 |
| 20260504034249 | 47 | 264 | 3.0 | 3.0 | 0.00 | 0.00 | 0.00 | 55 | 1012.9 |
| 20260504033746 | 47 | 174 | 1.0 | 2.0 | 0.00 | 0.00 | 0.00 | 55 | 1012.8 |
| 20260504033244 | 46 | 210 | 2.0 | 2.0 | 0.00 | 0.00 | 0.00 | 56 | 1012.9 |
| 20260504032740 | 46 | 143 | 1.0 | 2.0 | 0.00 | 0.00 | 0.00 | 56 | 1012.9 |
| 20260504032237 | 46 | 187 | 2.0 | 3.0 | 0.00 | 0.00 | 0.00 | 56 | 1013.1 |
| 20260504031734 | 46 | 259 | 2.0 | 3.0 | 0.00 | 0.00 | 0.00 | 56 | 1012.9 |
| 20260504031232 | 46 | 148 | 1.0 | 1.0 | 0.00 | 0.00 | 0.00 | 57 | 1012.7 |
| 20260504030727 | 46 | 134 | 0.0 | 0.0 | 0.00 | 0.00 | 0.00 | 58 | 1012.8 |
| 20260504030225 | 46 | 136 | 0.0 | 0.0 | 0.00 | 0.00 | 0.00 | 57 | 1012.8 |
| 20260504025721 | 46 | 130 | 0.0 | 0.0 | 0.00 | 0.00 | 0.00 | 56 | 1012.9 |
| 20260504025218 | 47 | 137 | 1.0 | 2.0 | 0.00 | 0.00 | 0.00 | 55 | 1012.9 |
| 20260504024715 | 47 | 128 | 0.0 | 1.0 | 0.00 | 0.00 | 0.00 | 56 | 1013.0 |
| 20260504024211 | 47 | 170 | 1.0 | 1.0 | 0.00 | 0.00 | 0.00 | 56 | 1012.9 |
| 20260504023708 | 47 | 172 | 1.0 | 2.0 | 0.00 | 0.00 | 0.00 | 55 | 1012.9 |
| 20260504023204 | 47 | 136 | 1.0 | 2.0 | 0.00 | 0.00 | 0.00 | 54 | 1013.0 |
| 20260504022701 | 47 | 137 | 0.0 | 0.0 | 0.00 | 0.00 | 0.00 | 56 | 1012.9 |
| 20260504022157 | 47 | 145 | 1.0 | 2.0 | 0.00 | 0.00 | 0.00 | 55 | 1013.0 |
| 20260504021655 | 47 | 135 | 0.0 | 1.0 | 0.00 | 0.00 | 0.00 | 55 | 1013.0 |
| 20260504021151 | 48 | 144 | 1.0 | 1.0 | 0.00 | 0.00 | 0.00 | 54 | 1013.0 |
| 20260504020648 | 48 | 147 | 1.0 | 1.0 | 0.00 | 0.00 | 0.00 | 54 | 1012.8 |
| 20260504020144 | 48 | 132 | 0.0 | 2.0 | 0.00 | 0.00 | 0.00 | 53 | 1012.9 |
| 20260504015641 | 49 | 291 | 1.0 | 2.0 | 0.00 | 0.00 | 0.00 | 52 | 1012.9 |
| 20260504015137 | 49 | 156 | 1.0 | 3.0 | 0.00 | 0.00 | 0.00 | 52 | 1012.9 |
| 20260504014633 | 48 | 242 | 1.0 | 2.0 | 0.00 | 0.00 | 0.00 | 52 | 1012.7 |
| 20260504014130 | 48 | 154 | 1.0 | 1.0 | 0.00 | 0.00 | 0.00 | 52 | 1012.7 |
| 20260504013628 | 48 | 138 | 1.0 | 1.0 | 0.00 | 0.00 | 0.00 | 53 | 1012.8 |
| 20260504013125 | 49 | 123 | 0.0 | 2.0 | 0.00 | 0.00 | 0.00 | 52 | 1012.6 |
| 20260504012622 | 49 | 135 | 1.0 | 1.0 | 0.00 | 0.00 | 0.00 | 52 | 1012.8 |
| 20260504012120 | 49 | 132 | 0.0 | 1.0 | 0.00 | 0.00 | 0.00 | 52 | 1012.8 |
| 20260504011617 | 49 | 127 | 1.0 | 1.0 | 0.00 | 0.00 | 0.00 | 52 | 1012.6 |
| 20260504011113 | 49 | 142 | 1.0 | 1.0 | 0.00 | 0.00 | 0.00 | 52 | 1012.7 |
| 20260504010609 | 49 | 141 | 1.0 | 2.0 | 0.00 | 0.00 | 0.00 | 52 | 1012.7 |
| 20260504010105 | 49 | 130 | 0.0 | 1.0 | 0.00 | 0.00 | 0.00 | 51 | 1012.7 |
| 20260504005602 | 50 | 150 | 1.0 | 1.0 | 0.00 | 0.00 | 0.00 | 50 | 1012.7 |
| 20260504005059 | 50 | 167 | 0.0 | 1.0 | 0.00 | 0.00 | 0.00 | 50 | 1012.6 |
| 20260504004557 | 50 | 136 | 0.0 | 1.0 | 0.00 | 0.00 | 0.00 | 49 | 1012.5 |
| 20260504004054 | 51 | 127 | 0.0 | 1.0 | 0.00 | 0.00 | 0.00 | 49 | 1012.5 |
| 20260504003549 | 51 | 155 | 1.0 | 1.0 | 0.00 | 0.00 | 0.00 | 47 | 1012.5 |
| 20260504003046 | 51 | 206 | 2.0 | 2.0 | 0.00 | 0.00 | 0.00 | 46 | 1012.5 |
| 20260504002543 | 52 | 157 | 1.0 | 1.0 | 0.00 | 0.00 | 0.00 | 46 | 1012.1 |
| 20260504002041 | 52 | 155 | 1.0 | 3.0 | 0.00 | 0.00 | 0.00 | 45 | 1012.1 |
| 20260504001539 | 53 | 162 | 2.0 | 3.0 | 0.00 | 0.00 | 0.00 | 44 | 1012.5 |
| 20260504001034 | 53 | 163 | 1.0 | 2.0 | 0.00 | 0.00 | 0.00 | 43 | 1012.2 |
| 20260504000532 | 53 | 178 | 2.0 | 3.0 | 0.00 | 0.00 | 0.00 | 44 | 1012.2 |
| 20260504000029 | 53 | 224 | 3.0 | 6.0 | 0.00 | 0.00 | 0.00 | 42 | 1012.3 |
| 20260503235527 | 54 | 147 | 1.0 | 3.0 | 0.00 | 0.00 | 0.00 | 42 | 1012.1 |
| 20260503235024 | 54 | 284 | 2.0 | 4.0 | 0.00 | 0.00 | 0.00 | 42 | 1012.1 |
| 20260503234521 | 54 | 263 | 2.0 | 3.0 | 0.00 | 0.00 | 0.00 | 42 | 1012.0 |
| 20260503234020 | 55 | 286 | 4.0 | 8.0 | 0.00 | 0.00 | 0.00 | 41 | 1011.9 |
| 20260503233516 | 55 | 192 | 2.0 | 3.0 | 0.00 | 0.00 | 0.00 | 40 | 1012.0 |
| 20260503233012 | 55 | 249 | 4.0 | 6.0 | 0.00 | 0.00 | 0.00 | 40 | 1012.0 |
| 20260503232509 | 56 | 210 | 3.0 | 3.0 | 0.00 | 0.00 | 0.00 | 40 | 1012.1 |
| 20260503232007 | 56 | 239 | 3.0 | 3.0 | 0.00 | 0.00 | 0.00 | 41 | 1012.0 |
| 20260503231504 | 56 | 283 | 2.0 | 4.0 | 0.00 | 0.00 | 0.00 | 39 | 1012.0 |
| 20260503231001 | 56 | 230 | 2.0 | 7.0 | 0.00 | 0.00 | 0.00 | 40 | 1012.0 |
| 20260503230457 | 56 | 175 | 4.0 | 8.0 | 0.00 | 0.00 | 0.00 | 40 | 1011.9 |
| 20260503225955 | 56 | 257 | 4.0 | 7.0 | 0.00 | 0.00 | 0.00 | 39 | 1012.1 |
| 20260503225451 | 56 | 222 | 6.0 | 8.0 | 0.00 | 0.00 | 0.00 | 39 | 1011.7 |
| 20260503224947 | 57 | 269 | 4.0 | 6.0 | 0.00 | 0.00 | 0.00 | 38 | 1012.0 |
| 20260503224444 | 57 | 269 | 2.0 | 7.0 | 0.00 | 0.00 | 0.00 | 39 | 1012.1 |
| 20260503223942 | 56 | 207 | 2.0 | 4.0 | 0.00 | 0.00 | 0.00 | 41 | 1012.0 |
| 20260503223440 | 55 | 271 | 3.0 | 7.0 | 0.00 | 0.00 | 0.00 | 40 | 1012.1 |
| 20260503222935 | 55 | 248 | 3.0 | 7.0 | 0.00 | 0.00 | 0.00 | 42 | 1012.0 |
| 20260503222434 | 55 | 172 | 3.0 | 7.0 | 0.00 | 0.00 | 0.00 | 41 | 1012.0 |
| 20260503221931 | 55 | 263 | 6.0 | 9.0 | 0.00 | 0.00 | 0.00 | 40 | 1012.1 |
| 20260503221429 | 56 | 184 | 4.0 | 6.0 | 0.00 | 0.00 | 0.00 | 39 | 1011.9 |
| 20260503220926 | 58 | 253 | 4.0 | 10.0 | 0.00 | 0.00 | 0.00 | 38 | 1012.1 |
| 20260503220422 | 57 | 223 | 4.0 | 9.0 | 0.00 | 0.00 | 0.00 | 38 | 1012.2 |
| 20260503215919 | 55 | 246 | 5.0 | 9.0 | 0.00 | 0.00 | 0.00 | 39 | 1012.1 |
| 20260503215416 | 55 | 299 | 8.0 | 8.0 | 0.00 | 0.00 | 0.00 | 39 | 1012.1 |
| 20260503214914 | 56 | 249 | 5.0 | 11.0 | 0.00 | 0.00 | 0.00 | 40 | 1012.2 |
| 20260503214411 | 59 | 234 | 3.0 | 8.0 | 0.00 | 0.00 | 0.00 | 38 | 1012.1 |
| 20260503213909 | 57 | 267 | 6.0 | 9.0 | 0.00 | 0.00 | 0.00 | 39 | 1012.1 |
| 20260503213406 | 56 | 73 | 2.0 | 8.0 | 0.00 | 0.00 | 0.00 | 40 | 1012.2 |
| 20260503212903 | 56 | 273 | 2.0 | 4.0 | 0.00 | 0.00 | 0.00 | 39 | 1011.9 |
| 20260503212401 | 56 | 298 | 6.0 | 9.0 | 0.00 | 0.00 | 0.00 | 39 | 1012.1 |
| 20260503211857 | 56 | 274 | 6.0 | 9.0 | 0.00 | 0.00 | 0.00 | 38 | 1011.9 |
| 20260503211354 | 57 | 251 | 2.0 | 7.0 | 0.00 | 0.00 | 0.00 | 39 | 1012.0 |
| 20260503210849 | 57 | 264 | 9.0 | 11.0 | 0.00 | 0.00 | 0.00 | 37 | 1011.9 |
| 20260503210347 | 56 | 193 | 5.0 | 14.0 | 0.00 | 0.00 | 0.00 | 39 | 1012.0 |
| 20260503205842 | 56 | 238 | 3.0 | 7.0 | 0.00 | 0.00 | 0.00 | 38 | 1011.9 |
| 20260503205339 | 57 | 275 | 6.0 | 9.0 | 0.00 | 0.00 | 0.00 | 38 | 1012.0 |
| 20260503204835 | 59 | 221 | 5.0 | 10.0 | 0.00 | 0.00 | 0.00 | 38 | 1012.0 |
| 20260503204332 | 57 | 212 | 2.0 | 6.0 | 0.00 | 0.00 | 0.00 | 39 | 1012.0 |
| 20260503203829 | 59 | 214 | 4.0 | 7.0 | 0.00 | 0.00 | 0.00 | 38 | 1012.0 |
| 20260503203327 | 58 | 78 | 1.0 | 10.0 | 0.00 | 0.00 | 0.00 | 39 | 1012.3 |
| 20260503202824 | 56 | 159 | 1.0 | 6.0 | 0.00 | 0.00 | 0.00 | 41 | 1012.2 |
| 20260503202322 | 56 | 216 | 5.0 | 10.0 | 0.00 | 0.00 | 0.00 | 39 | 1012.3 |
| 20260503201820 | 58 | 250 | 6.0 | 8.0 | 0.00 | 0.00 | 0.00 | 38 | 1012.6 |
| 20260503201316 | 57 | 258 | 7.0 | 9.0 | 0.00 | 0.00 | 0.00 | 38 | 1012.3 |
| 20260503200814 | 56 | 19 | 4.0 | 11.0 | 0.00 | 0.00 | 0.00 | 38 | 1012.3 |
| 20260503200310 | 56 | 247 | 1.0 | 10.0 | 0.00 | 0.00 | 0.00 | 40 | 1012.6 |
| 20260503195807 | 57 | 232 | 5.0 | 7.0 | 0.00 | 0.00 | 0.00 | 37 | 1012.6 |
| 20260503195304 | 56 | 295 | 5.0 | 10.0 | 0.00 | 0.00 | 0.00 | 38 | 1012.5 |
| 20260503194801 | 56 | 235 | 9.0 | 11.0 | 0.00 | 0.00 | 0.00 | 38 | 1012.5 |
| 20260503194256 | 55 | 273 | 7.0 | 9.0 | 0.00 | 0.00 | 0.00 | 38 | 1012.6 |
| 20260503193753 | 56 | 288 | 7.0 | 11.0 | 0.00 | 0.00 | 0.00 | 38 | 1012.6 |
| 20260503193249 | 56 | 282 | 5.0 | 8.0 | 0.00 | 0.00 | 0.00 | 38 | 1012.6 |
| 20260503192739 | 57 | 290 | 7.0 | 9.0 | 0.00 | 0.00 | 0.00 | 38 | 1012.8 |
| 20260503192234 | 58 | 289 | 8.0 | 9.0 | 0.00 | 0.00 | 0.00 | 36 | 1012.8 |
| 20260503191732 | 56 | 280 | 5.0 | 11.0 | 0.00 | 0.00 | 0.00 | 37 | 1013.0 |
| 20260503191229 | 56 | 232 | 8.0 | 10.0 | 0.00 | 0.00 | 0.00 | 40 | 1012.8 |
| 20260503190726 | 56 | 101 | 4.0 | 10.0 | 0.00 | 0.00 | 0.00 | 39 | 1013.1 |
| 20260503190222 | 56 | 171 | 2.0 | 9.0 | 0.00 | 0.00 | 0.00 | 41 | 1013.1 |
| 20260503185720 | 56 | 244 | 9.0 | 13.0 | 0.00 | 0.00 | 0.00 | 38 | 1013.2 |
| 20260503185215 | 57 | 237 | 6.0 | 8.0 | 0.00 | 0.00 | 0.00 | 39 | 1013.1 |
| 20260503184710 | 57 | 263 | 4.0 | 8.0 | 0.00 | 0.00 | 0.00 | 39 | 1013.2 |
| 20260503184206 | 55 | 240 | 5.0 | 6.0 | 0.00 | 0.00 | 0.00 | 39 | 1013.3 |
| 20260503183703 | 56 | 304 | 6.0 | 7.0 | 0.00 | 0.00 | 0.00 | 39 | 1013.3 |
| 20260503183200 | 55 | 256 | 4.0 | 8.0 | 0.00 | 0.00 | 0.00 | 41 | 1013.3 |
| 20260503182658 | 55 | 272 | 6.0 | 8.0 | 0.00 | 0.00 | 0.00 | 40 | 1013.3 |
| 20260503182156 | 55 | 239 | 3.0 | 8.0 | 0.00 | 0.00 | 0.00 | 46 | 1013.5 |
| 20260503181652 | 57 | 131 | 1.0 | 8.0 | 0.00 | 0.00 | 0.00 | 46 | 1013.4 |
| 20260503181149 | 54 | 238 | 2.0 | 14.0 | 0.00 | 0.00 | 0.00 | 40 | 1013.5 |
| 20260503180646 | 56 | 229 | 8.0 | 10.0 | 0.00 | 0.00 | 0.00 | 41 | 1013.4 |
| 20260503180145 | 54 | 290 | 1.0 | 9.0 | 0.00 | 0.00 | 0.00 | 45 | 1013.3 |
| 20260503175641 | 53 | 251 | 7.0 | 9.0 | 0.00 | 0.00 | 0.00 | 41 | 1013.4 |
| 20260503175138 | 53 | 288 | 2.0 | 8.0 | 0.00 | 0.00 | 0.00 | 45 | 1013.6 |
| 20260503174635 | 54 | 210 | 5.0 | 15.0 | 0.00 | 0.00 | 0.00 | 41 | 1013.6 |
| 20260503174132 | 55 | 302 | 5.0 | 8.0 | 0.00 | 0.00 | 0.00 | 43 | 1013.6 |
| 20260503173627 | 52 | 307 | 9.0 | 13.0 | 0.00 | 0.00 | 0.00 | 41 | 1013.7 |
| 20260503173124 | 53 | 232 | 6.0 | 14.0 | 0.00 | 0.00 | 0.00 | 40 | 1013.6 |
| 20260503172621 | 53 | 200 | 5.0 | 8.0 | 0.00 | 0.00 | 0.00 | 41 | 1013.8 |
| 20260503172118 | 55 | 159 | 3.0 | 9.0 | 0.00 | 0.00 | 0.00 | 45 | 1013.8 |
| 20260503171615 | 54 | 251 | 3.0 | 7.0 | 0.00 | 0.00 | 0.00 | 43 | 1013.5 |
| 20260503171112 | 52 | 273 | 7.0 | 9.0 | 0.00 | 0.00 | 0.00 | 44 | 1013.6 |
| 20260503170609 | 52 | 213 | 3.0 | 8.0 | 0.00 | 0.00 | 0.00 | 44 | 1013.9 |
| 20260503170105 | 52 | 230 | 4.0 | 10.0 | 0.00 | 0.00 | 0.00 | 43 | 1013.8 |
| 20260503151000 | 49 | 246 | 6.0 | 8.0 | 0.00 | 0.00 | 0.00 | 46 | 1014.9 |
| 20260503150457 | 47 | 299 | 4.0 | 11.0 | 0.00 | 0.00 | 0.00 | 50 | 1015.0 |
| 20260503131350 | 43 | 272 | 4.0 | 9.0 | 0.00 | 0.00 | 0.00 | 61 | 1015.4 |
| 20260503130847 | 43 | 245 | 6.0 | 9.0 | 0.00 | 0.00 | 0.00 | 60 | 1015.4 |
| 20260503130345 | 43 | 240 | 3.0 | 6.0 | 0.00 | 0.00 | 0.00 | 61 | 1015.5 |
| 20260503110744 | 35 | 136 | 1.0 | 2.0 | 0.00 | 0.00 | 0.00 | 74 | 1014.9 |
| 20260503110241 | 35 | 166 | 0.0 | 1.0 | 0.00 | 0.00 | 0.00 | 74 | 1014.8 |
| 20260503100207 | 34 | 274 | 2.0 | 3.0 | 0.00 | 0.00 | 0.00 | 75 | 1014.0 |
| 20260503090131 | 36 | 279 | 4.0 | 6.0 | 0.00 | 0.00 | 0.00 | 71 | 1013.9 |
| 20260503081602 | 36 | 133 | 0.0 | 1.0 | 0.00 | 0.00 | 0.00 | 73 | 1013.7 |
| 20260503081100 | 36 | 203 | 2.0 | 2.0 | 0.00 | 0.00 | 0.00 | 72 | 1013.7 |
| 20260503080555 | 36 | 209 | 2.0 | 3.0 | 0.00 | 0.00 | 0.00 | 72 | 1013.5 |
| 20260503072529 | 36 | 141 | 1.0 | 1.0 | 0.00 | 0.00 | 0.00 | 71 | 1013.5 |
| 20260503072026 | 36 | 294 | 4.0 | 6.0 | 0.00 | 0.00 | 0.00 | 70 | 1013.5 |
| 20260503071523 | 37 | 151 | 1.0 | 2.0 | 0.00 | 0.00 | 0.00 | 70 | 1013.4 |
| 20260503071020 | 37 | 274 | 3.0 | 3.0 | 0.00 | 0.00 | 0.00 | 69 | 1013.5 |
| 20260503070516 | 37 | 130 | 1.0 | 2.0 | 0.00 | 0.00 | 0.00 | 68 | 1013.3 |
| 20260503054934 | 37 | 197 | 1.0 | 3.0 | 0.00 | 0.00 | 0.00 | 68 | 1013.6 |
| 20260503054430 | 37 | 300 | 2.0 | 3.0 | 0.00 | 0.00 | 0.00 | 69 | 1013.6 |
| 20260503053928 | 37 | 151 | 0.0 | 1.0 | 0.00 | 0.00 | 0.00 | 69 | 1013.5 |
| 20260503053426 | 38 | 119 | 0.0 | 0.0 | 0.00 | 0.00 | 0.00 | 69 | 1013.4 |
| 20260503052922 | 38 | 127 | 0.0 | 1.0 | 0.00 | 0.00 | 0.00 | 67 | 1013.7 |
| 20260503052420 | 38 | 115 | 0.0 | 1.0 | 0.00 | 0.00 | 0.00 | 68 | 1013.8 |
| 20260503051916 | 39 | 122 | 0.0 | 1.0 | 0.00 | 0.00 | 0.00 | 68 | 1013.7 |
| 20260503051412 | 39 | 151 | 2.0 | 2.0 | 0.00 | 0.00 | 0.00 | 66 | 1013.7 |
| 20260503050909 | 39 | 164 | 1.0 | 2.0 | 0.00 | 0.00 | 0.00 | 66 | 1013.7 |
| 20260503050405 | 39 | 124 | 0.0 | 1.0 | 0.00 | 0.00 | 0.00 | 68 | 1013.5 |
| 20260503045903 | 39 | 123 | 0.0 | 1.0 | 0.00 | 0.00 | 0.00 | 66 | 1013.6 |
| 20260503045400 | 39 | 138 | 1.0 | 1.0 | 0.00 | 0.00 | 0.00 | 67 | 1013.6 |
| 20260503044856 | 39 | 129 | 0.0 | 1.0 | 0.00 | 0.00 | 0.00 | 68 | 1013.7 |
| 20260503044354 | 39 | 132 | 0.0 | 1.0 | 0.00 | 0.00 | 0.00 | 67 | 1013.8 |
| 20260503043851 | 39 | 123 | 0.0 | 0.0 | 0.00 | 0.00 | 0.00 | 68 | 1013.7 |
| 20260503043348 | 39 | 116 | 0.0 | 0.0 | 0.00 | 0.00 | 0.00 | 67 | 1013.8 |
| 20260503042844 | 39 | 119 | 0.0 | 0.0 | 0.00 | 0.00 | 0.00 | 66 | 1013.7 |
| 20260503042340 | 39 | 143 | 1.0 | 3.0 | 0.00 | 0.00 | 0.00 | 64 | 1013.8 |